STARLINK-1609, 47621

Orbit data source: Space-Track

STARLINK-1609, 47621 is a payload satellite owned by SpaceX/Seattle (US) in LEO that was launched on Tue, 16 Feb 2021 UTC via an FALCON 9 launch vehicle from the Air Force Eastern Test Range (AFETR). Payload-class satellites include a variety of spacecraft equipped with specific instruments for various scientific and technological missions. These include communications satellites like Starlink; space stations such as the ISS; scientific satellites like the Hubble; Earth observation satellites from companies like Planet Labs, Umbra, and HawkEye 360; GPS; miniature CubeSats for education and research; and military/defense satellites.

Loading next visibility...
Identifier
47621, 2021-012B
Orbit
LEO
Country
Flag of USUS
Related business
Manufacturer
SpaceX/Seattle
Mission
Operational Commercial Communications
Bus & Motor
STARLINK, Unknown motor
Mass
260 kg wet, ~248 kg dry
Launch date (UTC)
2021-02-16 (5 years ago)
Launch vehicle
FALCON 9
Launch site
Air Force Eastern Test Range (AFETR)
Object type
Payload
Rocket body
Debris
Shape & HBR
Box + 1 Pan, 10.1 m
Radar Cross Section
13.562 m², Large (>1 m²)

Expand to show TLE details & history
Last TLE update: 19 hours ago

TLE from 19 hours ago
0 STARLINK-1609
1 47621U 21012B   25343.08752055  .00002048  00000-0  15643-3 0  9991
2 47621  53.0545 118.3487 0001079  88.6157 271.4956 15.06381109266336
Epoch: 2025-12-09T02:06Z
TLE epoch observation values (Epoch: 2025-12-09T02:06:01.775Z)
Latitude
0.00001°
Longitude
8.76408°
Altitude
548.129 km
Speed
7.589 km/s
True Right ascension
07h 53m 23s
True Declination
0° 00' 00"
Sunlit
Object was in full shadow at epoch
Visualization orbit readout
Latitude
Unknown
Longitude
Unknown
Altitude
Unknown
Speed
Unknown
Apparent Right ascension
Unknown
Apparent Declination
Unknown
Sunlit
N/A
Visualization observer readout
Local Sidereal Time
19:50:27
Azimuth
Unknown
Elevation
Unknown
Doppler factor
Unknown
Orbital elements
Apogee altitude
548.287 km
Perigee altitude
546.793 km
Semi-major axis
6,925.677 km
Eccentricity
0.00011
Inclination
53.0545°
RAAN
118.3487°
Arg. of periapsis
88.6157°
True anomaly
271.48324°
Mean anomaly
271.4956°
Eccentric anomaly
271.48942°
Mean motion
3.76574 °/min
Orbital period
95.6 mins
BSTAR
0.00015643
Loading maneuver chart data...
Computing Atmospheric mass density...
Loading historical data...
Loading historical data...
Loading historical data...
Loading historical data...
Loading historical data...
Loading historical data...
Loading historical data...

Documentation

Showing up to 5 results
|